owner,sensor,date,latitude,longitude,vertical_datum,direction_of_sea_water_velocity,sea_water_speed,upward_sea_water_velocity,qcFlag 
TABS,ioos:station:wmo:42048:1,2004-08-01T00:00:00Z,27.9396,-96.8429,2.0,356.8765554,6.790088365,-99999.0,'11133222,11111222,99999999' 
TABS,ioos:station:wmo:42048:1,2004-08-01T00:30:00Z,27.9396,-96.8429,2.0,326.1184699,8.287267342,-99999.0,'11133222,11111222,99999999' 
TABS,ioos:station:wmo:42048:1,2004-08-01T01:00:00Z,27.9396,-96.8429,2.0,334.3592646,5.268861357,-99999.0,'11133222,11111222,99999999' 
TABS,ioos:station:wmo:42048:1,2004-08-01T01:30:00Z,27.9396,-96.8429,2.0,337.6313964,11.06241384,-99999.0,'11111222,11111222,99999999' 
TABS,ioos:station:wmo:42048:1,2004-08-01T02:00:00Z,27.9396,-96.8429,2.0,335.3940333,8.766036733,-99999.0,'11133222,11111222,99999999' 
TABS,ioos:station:wmo:42048:1,2004-08-01T02:30:00Z,27.9396,-96.8429,2.0,322.7508766,8.756192095,-99999.0,'11133222,11111222,99999999' 
TABS,ioos:station:wmo:42048:1,2004-08-01T03:00:00Z,27.9396,-96.8429,2.0,338.8932611,13.02377058,-99999.0,'11111222,11111222,99999999' 
TABS,ioos:station:wmo:42048:1,2004-08-01T03:30:00Z,27.9396,-96.8429,2.0,321.6051357,12.17231285,-99999.0,'11111222,11111222,99999999' 
TABS,ioos:station:wmo:42048:1,2004-08-01T04:00:00Z,27.9396,-96.8429,2.0,314.1515534,9.546989054,-99999.0,'11133222,11111222,99999999' 
TABS,ioos:station:wmo:42048:1,2004-08-01T04:30:00Z,27.9396,-96.8429,2.0,329.9493585,16.25498385,-99999.0,'11111222,11111222,99999999' 
TABS,ioos:station:wmo:42048:1,2004-08-01T05:00:00Z,27.9396,-96.8429,2.0,331.945019,15.64882424,-99999.0,'11111222,11111222,99999999' 
TABS,ioos:station:wmo:42048:1,2004-08-01T05:30:00Z,27.9396,-96.8429,2.0,328.5878253,12.70157471,-99999.0,'11111222,11111222,99999999' 
TABS,ioos:station:wmo:42048:1,2004-08-01T06:00:00Z,27.9396,-96.8429,2.0,331.2459107,13.34565098,-99999.0,'11111222,11111222,99999999' 
TABS,ioos:station:wmo:42048:1,2004-08-01T06:30:00Z,27.9396,-96.8429,2.0,332.8752211,13.26946118,-99999.0,'11111222,11111222,99999999' 
TABS,ioos:station:wmo:42048:1,2004-08-01T07:00:00Z,27.9396,-96.8429,2.0,336.2902167,13.82711828,-99999.0,'11111222,11111222,99999999' 
TABS,ioos:station:wmo:42048:1,2004-08-01T07:30:00Z,27.9396,-96.8429,2.0,355.1432853,11.22028966,-99999.0,'11111222,11111222,99999999' 
TABS,ioos:station:wmo:42048:1,2004-08-01T08:00:00Z,27.9396,-96.8429,2.0,341.7608523,10.19208026,-99999.0,'11111222,11111222,99999999' 
TABS,ioos:station:wmo:42048:1,2004-08-01T08:30:00Z,27.9396,-96.8429,2.0,1.656700469,13.14549352,-99999.0,'11111222,11111222,99999999' 
TABS,ioos:station:wmo:42048:1,2004-08-01T09:00:00Z,27.9396,-96.8429,2.0,359.356918,14.25089822,-99999.0,'11111222,11144222,99999999' 
TABS,ioos:station:wmo:42048:1,2004-08-01T09:30:00Z,27.9396,-96.8429,2.0,12.10628043,14.11387969,-99999.0,'11111222,11111222,99999999' 
TABS,ioos:station:wmo:42048:1,2004-08-01T10:00:00Z,27.9396,-96.8429,2.0,22.044148,11.40365292,-99999.0,'11111222,11111222,99999999' 
TABS,ioos:station:wmo:42048:1,2004-08-01T10:30:00Z,27.9396,-96.8429,2.0,30.87984235,10.52144952,-99999.0,'11111222,11111222,99999999' 
TABS,ioos:station:wmo:42048:1,2004-08-01T11:00:00Z,27.9396,-96.8429,2.0,41.00186034,10.24262173,-99999.0,'11111222,11111222,99999999' 
TABS,ioos:station:wmo:42048:1,2004-08-01T11:30:00Z,27.9396,-96.8429,2.0,45.56948421,11.38498134,-99999.0,'11111222,11111222,99999999' 
TABS,ioos:station:wmo:42048:1,2004-08-01T12:00:00Z,27.9396,-96.8429,2.0,51.86963352,10.81861821,-99999.0,'11111222,11111222,99999999' 
TABS,ioos:station:wmo:42048:1,2004-08-01T12:30:00Z,27.9396,-96.8429,2.0,55.01906028,12.80295669,-99999.0,'11111222,11111222,99999999' 
TABS,ioos:station:wmo:42048:1,2004-08-01T13:00:00Z,27.9396,-96.8429,2.0,86.01844261,11.37746017,-99999.0,'11111222,11111222,99999999' 
TABS,ioos:station:wmo:42048:1,2004-08-01T13:30:00Z,27.9396,-96.8429,2.0,78.1029596,10.52610564,-99999.0,'11111222,11111222,99999999' 
TABS,ioos:station:wmo:42048:1,2004-08-01T14:00:00Z,27.9396,-96.8429,2.0,86.7643021,10.80722906,-99999.0,'11111222,11111222,99999999' 
TABS,ioos:station:wmo:42048:1,2004-08-01T14:30:00Z,27.9396,-96.8429,2.0,98.2491427,11.56970613,-99999.0,'11111222,11111222,99999999' 
TABS,ioos:station:wmo:42048:1,2004-08-01T15:00:00Z,27.9396,-96.8429,2.0,103.4250424,9.777167279,-99999.0,'11133222,11111222,99999999' 
TABS,ioos:station:wmo:42048:1,2004-08-01T15:30:00Z,27.9396,-96.8429,2.0,106.4299409,10.39444563,-99999.0,'11111222,11111222,99999999' 
TABS,ioos:station:wmo:42048:1,2004-08-01T16:00:00Z,27.9396,-96.8429,2.0,117.6258983,9.661469867,-99999.0,'11133222,11111222,99999999' 
TABS,ioos:station:wmo:42048:1,2004-08-01T16:30:00Z,27.9396,-96.8429,2.0,128.9182791,9.343971318,-99999.0,'11133222,11111222,99999999' 
TABS,ioos:station:wmo:42048:1,2004-08-01T17:00:00Z,27.9396,-96.8429,2.0,133.8586982,8.875950653,-99999.0,'11133222,11111222,99999999' 
TABS,ioos:station:wmo:42048:1,2004-08-01T17:30:00Z,27.9396,-96.8429,2.0,157.1697713,7.757744518,-99999.0,'11133222,11111222,99999999' 
TABS,ioos:station:wmo:42048:1,2004-08-01T18:00:00Z,27.9396,-96.8429,2.0,177.7117244,9.017189141,-99999.0,'11133222,11111222,99999999' 
TABS,ioos:station:wmo:42048:1,2004-08-01T18:30:00Z,27.9396,-96.8429,2.0,172.865691,7.810467336,-99999.0,'11133222,11111222,99999999' 
TABS,ioos:station:wmo:42048:1,2004-08-01T19:00:00Z,27.9396,-96.8429,2.0,190.8732845,9.011797823,-99999.0,'11133222,11111222,99999999' 
TABS,ioos:station:wmo:42048:1,2004-08-01T19:30:00Z,27.9396,-96.8429,2.0,204.9219966,10.6077943,-99999.0,'11111222,11111222,99999999' 
TABS,ioos:station:wmo:42048:1,2004-08-01T20:00:00Z,27.9396,-96.8429,2.0,200.9299078,11.11329384,-99999.0,'11111222,11111222,99999999' 
TABS,ioos:station:wmo:42048:1,2004-08-01T20:30:00Z,27.9396,-96.8429,2.0,206.8470209,9.986400753,-99999.0,'11133222,11111222,99999999' 
TABS,ioos:station:wmo:42048:1,2004-08-01T21:00:00Z,27.9396,-96.8429,2.0,206.6764659,11.47105052,-99999.0,'11111222,11111222,99999999' 
TABS,ioos:station:wmo:42048:1,2004-08-01T21:30:00Z,27.9396,-96.8429,2.0,213.2034745,12.41741116,-99999.0,'11111222,11111222,99999999' 
TABS,ioos:station:wmo:42048:1,2004-08-01T22:00:00Z,27.9396,-96.8429,2.0,218.4835169,12.71104244,-99999.0,'11111222,11111222,99999999' 
TABS,ioos:station:wmo:42048:1,2004-08-01T22:30:00Z,27.9396,-96.8429,2.0,229.4129758,12.77286577,-99999.0,'11111222,11111222,99999999' 
TABS,ioos:station:wmo:42048:1,2004-08-01T23:00:00Z,27.9396,-96.8429,2.0,235.3193938,14.60466364,-99999.0,'11111222,11111222,99999999' 
TABS,ioos:station:wmo:42048:1,2004-08-01T23:30:00Z,27.9396,-96.8429,2.0,234.658237,12.8965887,-99999.0,'11111222,11111222,99999999' 
TABS,ioos:station:wmo:42048:1,2004-08-02T00:00:00Z,27.9396,-96.8429,2.0,237.4651336,15.26568046,-99999.0,'11111222,11111222,99999999' 
TABS,ioos:station:wmo:42048:1,2004-08-02T00:30:00Z,27.9396,-96.8429,2.0,238.8497096,15.83283297,-99999.0,'11111222,11111222,99999999' 
TABS,ioos:station:wmo:42048:1,2004-08-02T01:00:00Z,27.9396,-96.8429,2.0,241.0108243,16.07382033,-99999.0,'11111222,11111222,99999999' 
TABS,ioos:station:wmo:42048:1,2004-08-02T01:30:00Z,27.9396,-96.8429,2.0,253.429719,12.72858594,-99999.0,'11111222,11111222,99999999' 
TABS,ioos:station:wmo:42048:1,2004-08-02T02:00:00Z,27.9396,-96.8429,2.0,244.2574512,12.4561832,-99999.0,'11111222,11111222,99999999' 
TABS,ioos:station:wmo:42048:1,2004-08-02T02:30:00Z,27.9396,-96.8429,2.0,255.1892663,16.15677257,-99999.0,'11111222,11111222,99999999' 
TABS,ioos:station:wmo:42048:1,2004-08-02T03:00:00Z,27.9396,-96.8429,2.0,252.3600388,14.12409289,-99999.0,'11111222,11111222,99999999' 
TABS,ioos:station:wmo:42048:1,2004-08-02T03:30:00Z,27.9396,-96.8429,2.0,254.9124945,12.56303307,-99999.0,'11111222,11111222,99999999' 
TABS,ioos:station:wmo:42048:1,2004-08-02T04:00:00Z,27.9396,-96.8429,2.0,250.9433261,13.99706398,-99999.0,'11111222,11111222,99999999' 
TABS,ioos:station:wmo:42048:1,2004-08-02T04:30:00Z,27.9396,-96.8429,2.0,239.1504098,12.87099452,-99999.0,'11111222,11111222,99999999' 
TABS,ioos:station:wmo:42048:1,2004-08-02T05:00:00Z,27.9396,-96.8429,2.0,256.8734971,11.75718504,-99999.0,'11111222,11111222,99999999' 
TABS,ioos:station:wmo:42048:1,2004-08-02T05:30:00Z,27.9396,-96.8429,2.0,252.0449849,13.20297315,-99999.0,'11111222,11111222,99999999' 
TABS,ioos:station:wmo:42048:1,2004-08-02T06:00:00Z,27.9396,-96.8429,2.0,263.3855583,14.32534118,-99999.0,'11111222,11111222,99999999' 
TABS,ioos:station:wmo:42048:1,2004-08-02T06:30:00Z,27.9396,-96.8429,2.0,254.330952,13.36671239,-99999.0,'11111222,11111222,99999999' 
TABS,ioos:station:wmo:42048:1,2004-08-02T07:00:00Z,27.9396,-96.8429,2.0,255.8546023,11.4986347,-99999.0,'11111222,11111222,99999999' 
TABS,ioos:station:wmo:42048:1,2004-08-02T07:30:00Z,27.9396,-96.8429,2.0,256.4321901,12.74567378,-99999.0,'11111222,11111222,99999999' 
TABS,ioos:station:wmo:42048:1,2004-08-02T08:00:00Z,27.9396,-96.8429,2.0,248.2585862,12.33760512,-99999.0,'11111222,11111222,99999999' 
TABS,ioos:station:wmo:42048:1,2004-08-02T08:30:00Z,27.9396,-96.8429,2.0,238.470996,9.04527501,-99999.0,'11133222,11111222,99999999' 
TABS,ioos:station:wmo:42048:1,2004-08-02T09:00:00Z,27.9396,-96.8429,2.0,247.4128508,7.993078256,-99999.0,'11133222,11111222,99999999' 
TABS,ioos:station:wmo:42048:1,2004-08-02T09:30:00Z,27.9396,-96.8429,2.0,243.4593719,10.3395793,-99999.0,'11111222,11111222,99999999' 
TABS,ioos:station:wmo:42048:1,2004-08-02T10:00:00Z,27.9396,-96.8429,2.0,251.684958,9.037809469,-99999.0,'11133222,11111222,99999999' 
TABS,ioos:station:wmo:42048:1,2004-08-02T10:30:00Z,27.9396,-96.8429,2.0,243.3390443,8.04538377,-99999.0,'11133222,11111222,99999999' 
TABS,ioos:station:wmo:42048:1,2004-08-02T11:00:00Z,27.9396,-96.8429,2.0,240.929503,7.162262212,-99999.0,'11133222,11111222,99999999' 
TABS,ioos:station:wmo:42048:1,2004-08-02T11:30:00Z,27.9396,-96.8429,2.0,233.2476944,6.802014408,-99999.0,'11133222,11111222,99999999' 
TABS,ioos:station:wmo:42048:1,2004-08-02T12:00:00Z,27.9396,-96.8429,2.0,226.3837993,9.074827822,-99999.0,'11133222,11111222,99999999' 
TABS,ioos:station:wmo:42048:1,2004-08-02T12:30:00Z,27.9396,-96.8429,2.0,218.6308596,9.370426885,-99999.0,'11133222,11111222,99999999' 
TABS,ioos:station:wmo:42048:1,2004-08-02T13:00:00Z,27.9396,-96.8429,2.0,228.2458104,9.490458366,-99999.0,'11133222,11111222,99999999' 
TABS,ioos:station:wmo:42048:1,2004-08-02T13:30:00Z,27.9396,-96.8429,2.0,212.3121926,9.690639814,-99999.0,'11133222,11111222,99999999' 
TABS,ioos:station:wmo:42048:1,2004-08-02T14:00:00Z,27.9396,-96.8429,2.0,214.4304902,9.868941179,-99999.0,'11133222,11111222,99999999' 
TABS,ioos:station:wmo:42048:1,2004-08-02T14:30:00Z,27.9396,-96.8429,2.0,223.2435284,11.99816653,-99999.0,'11111222,11111222,99999999' 
TABS,ioos:station:wmo:42048:1,2004-08-02T15:00:00Z,27.9396,-96.8429,2.0,212.0857505,11.2953486,-99999.0,'11111222,11111222,99999999' 
TABS,ioos:station:wmo:42048:1,2004-08-02T15:30:00Z,27.9396,-96.8429,2.0,212.9413029,11.67743551,-99999.0,'11111222,11111222,99999999' 
TABS,ioos:station:wmo:42048:1,2004-08-02T16:00:00Z,27.9396,-96.8429,2.0,210.8336695,15.13993395,-99999.0,'11111222,11111222,99999999' 
TABS,ioos:station:wmo:42048:1,2004-08-02T16:30:00Z,27.9396,-96.8429,2.0,219.7456245,17.21968931,-99999.0,'11111222,11111222,99999999' 
TABS,ioos:station:wmo:42048:1,2004-08-02T17:00:00Z,27.9396,-96.8429,2.0,232.3760244,14.59526293,-99999.0,'11111222,11111222,99999999' 
TABS,ioos:station:wmo:42048:1,2004-08-02T17:30:00Z,27.9396,-96.8429,2.0,225.6168044,16.41290041,-99999.0,'11111222,11111222,99999999' 
TABS,ioos:station:wmo:42048:1,2004-08-02T18:00:00Z,27.9396,-96.8429,2.0,230.5542598,17.31348896,-99999.0,'11111222,11111222,99999999' 
TABS,ioos:station:wmo:42048:1,2004-08-02T18:30:00Z,27.9396,-96.8429,2.0,223.7639906,16.39454787,-99999.0,'11111222,11111222,99999999' 
TABS,ioos:station:wmo:42048:1,2004-08-02T19:00:00Z,27.9396,-96.8429,2.0,231.5033977,18.6034943,-99999.0,'11111222,11111222,99999999' 
TABS,ioos:station:wmo:42048:1,2004-08-02T19:30:00Z,27.9396,-96.8429,2.0,237.5668228,18.32893341,-99999.0,'11111222,11111222,99999999' 
TABS,ioos:station:wmo:42048:1,2004-08-02T20:00:00Z,27.9396,-96.8429,2.0,233.9115435,18.02967831,-99999.0,'11111222,11111222,99999999' 
TABS,ioos:station:wmo:42048:1,2004-08-02T20:30:00Z,27.9396,-96.8429,2.0,232.482479,21.0673444,-99999.0,'11111222,11111222,99999999' 
TABS,ioos:station:wmo:42048:1,2004-08-02T21:00:00Z,27.9396,-96.8429,2.0,229.8316537,18.21617139,-99999.0,'11111222,11111222,99999999' 
TABS,ioos:station:wmo:42048:1,2004-08-02T21:30:00Z,27.9396,-96.8429,2.0,242.6333882,21.42809838,-99999.0,'11111222,11111222,99999999' 
TABS,ioos:station:wmo:42048:1,2004-08-02T22:00:00Z,27.9396,-96.8429,2.0,243.7886266,21.71263457,-99999.0,'11111222,11111222,99999999' 
TABS,ioos:station:wmo:42048:1,2004-08-02T22:30:00Z,27.9396,-96.8429,2.0,237.7850971,20.03409344,-99999.0,'11111222,11111222,99999999' 
TABS,ioos:station:wmo:42048:1,2004-08-02T23:00:00Z,27.9396,-96.8429,2.0,239.4279689,20.80155042,-99999.0,'11111222,11111222,99999999' 
TABS,ioos:station:wmo:42048:1,2004-08-02T23:30:00Z,27.9396,-96.8429,2.0,238.2285905,22.03118018,-99999.0,'11111222,11111222,99999999' 
TABS,ioos:station:wmo:42048:1,2004-08-03T00:00:00Z,27.9396,-96.8429,2.0,234.6523125,19.94704239,-99999.0,'11111222,11111222,99999999' 
TABS,ioos:station:wmo:42048:1,2004-08-03T00:30:00Z,27.9396,-96.8429,2.0,232.0239981,18.96553189,-99999.0,'11111222,11111222,99999999' 
TABS,ioos:station:wmo:42048:1,2004-08-03T01:00:00Z,27.9396,-96.8429,2.0,230.2692195,18.55512059,-99999.0,'11111222,11111222,99999999' 
TABS,ioos:station:wmo:42048:1,2004-08-03T01:30:00Z,27.9396,-96.8429,2.0,234.4211392,13.04531333,-99999.0,'11111222,11111222,99999999' 
TABS,ioos:station:wmo:42048:1,2004-08-03T02:00:00Z,27.9396,-96.8429,2.0,236.5547773,16.20294109,-99999.0,'11111222,11111222,99999999' 
TABS,ioos:station:wmo:42048:1,2004-08-03T02:30:00Z,27.9396,-96.8429,2.0,230.1236815,19.79323622,-99999.0,'11111222,11111222,99999999' 
TABS,ioos:station:wmo:42048:1,2004-08-03T03:00:00Z,27.9396,-96.8429,2.0,229.6210345,17.02591554,-99999.0,'11111222,11111222,99999999' 
TABS,ioos:station:wmo:42048:1,2004-08-03T03:30:00Z,27.9396,-96.8429,2.0,225.7402448,18.05394417,-99999.0,'11111222,11111222,99999999' 
TABS,ioos:station:wmo:42048:1,2004-08-03T04:00:00Z,27.9396,-96.8429,2.0,233.2178209,16.91801998,-99999.0,'11111222,11111222,99999999' 
TABS,ioos:station:wmo:42048:1,2004-08-03T04:30:00Z,27.9396,-96.8429,2.0,228.7290259,17.17664112,-99999.0,'11111222,11111222,99999999' 
TABS,ioos:station:wmo:42048:1,2004-08-03T05:00:00Z,27.9396,-96.8429,2.0,240.7214963,15.68347219,-99999.0,'11111222,11111222,99999999' 
TABS,ioos:station:wmo:42048:1,2004-08-03T05:30:00Z,27.9396,-96.8429,2.0,234.319971,14.53913684,-99999.0,'11111222,11111222,99999999' 
TABS,ioos:station:wmo:42048:1,2004-08-03T06:00:00Z,27.9396,-96.8429,2.0,233.1901265,15.18800843,-99999.0,'11111222,11111222,99999999' 
TABS,ioos:station:wmo:42048:1,2004-08-03T06:30:00Z,27.9396,-96.8429,2.0,243.6815525,8.300361438,-99999.0,'11133222,11111222,99999999' 
TABS,ioos:station:wmo:42048:1,2004-08-03T07:00:00Z,27.9396,-96.8429,2.0,231.4450873,11.90514595,-99999.0,'11111222,11111222,99999999' 
TABS,ioos:station:wmo:42048:1,2004-08-03T07:30:00Z,27.9396,-96.8429,2.0,234.8613064,12.50971223,-99999.0,'11111222,11111222,99999999' 
TABS,ioos:station:wmo:42048:1,2004-08-03T08:00:00Z,27.9396,-96.8429,2.0,235.8932049,7.63287626,-99999.0,'11133222,11111222,99999999' 
TABS,ioos:station:wmo:42048:1,2004-08-03T08:30:00Z,27.9396,-96.8429,2.0,231.979963,10.76416741,-99999.0,'11111222,11111222,99999999' 
TABS,ioos:station:wmo:42048:1,2004-08-03T09:00:00Z,27.9396,-96.8429,2.0,217.6525313,7.464696913,-99999.0,'11133222,11111222,99999999' 
TABS,ioos:station:wmo:42048:1,2004-08-03T09:30:00Z,27.9396,-96.8429,2.0,222.4440251,7.453247614,-99999.0,'11133222,11111222,99999999' 
TABS,ioos:station:wmo:42048:1,2004-08-03T10:00:00Z,27.9396,-96.8429,2.0,232.124684,7.639175348,-99999.0,'11133222,11111222,99999999' 
TABS,ioos:station:wmo:42048:1,2004-08-03T10:30:00Z,27.9396,-96.8429,2.0,228.5581211,14.12694588,-99999.0,'11111222,11111222,99999999' 
TABS,ioos:station:wmo:42048:1,2004-08-03T11:00:00Z,27.9396,-96.8429,2.0,228.7804882,14.58399808,-99999.0,'11111222,11111222,99999999' 
TABS,ioos:station:wmo:42048:1,2004-08-03T11:30:00Z,27.9396,-96.8429,2.0,214.0728269,13.69030679,-99999.0,'11111222,11111222,99999999' 
TABS,ioos:station:wmo:42048:1,2004-08-03T12:00:00Z,27.9396,-96.8429,2.0,211.4357011,12.6930414,-99999.0,'11111222,11111222,99999999' 
TABS,ioos:station:wmo:42048:1,2004-08-03T12:30:00Z,27.9396,-96.8429,2.0,217.037952,14.2940617,-99999.0,'11111222,11111222,99999999' 
TABS,ioos:station:wmo:42048:1,2004-08-03T13:00:00Z,27.9396,-96.8429,2.0,217.2186563,11.49021323,-99999.0,'11111222,11111222,99999999' 
TABS,ioos:station:wmo:42048:1,2004-08-03T13:30:00Z,27.9396,-96.8429,2.0,215.805408,12.92222891,-99999.0,'11111222,11111222,99999999' 
TABS,ioos:station:wmo:42048:1,2004-08-03T14:00:00Z,27.9396,-96.8429,2.0,200.672141,14.98480897,-99999.0,'11111222,11111222,99999999' 
TABS,ioos:station:wmo:42048:1,2004-08-03T14:30:00Z,27.9396,-96.8429,2.0,208.0202206,14.26177058,-99999.0,'11111222,11111222,99999999' 
TABS,ioos:station:wmo:42048:1,2004-08-03T15:00:00Z,27.9396,-96.8429,2.0,214.5431881,12.66243657,-99999.0,'11111222,11111222,99999999' 
TABS,ioos:station:wmo:42048:1,2004-08-03T15:30:00Z,27.9396,-96.8429,2.0,217.7652313,15.60990711,-99999.0,'11111222,11111222,99999999' 
TABS,ioos:station:wmo:42048:1,2004-08-03T16:00:00Z,27.9396,-96.8429,2.0,218.6483971,16.1077621,-99999.0,'11111222,11111222,99999999' 
TABS,ioos:station:wmo:42048:1,2004-08-03T16:30:00Z,27.9396,-96.8429,2.0,226.1197712,14.83086309,-99999.0,'11111222,11111222,99999999' 
TABS,ioos:station:wmo:42048:1,2004-08-03T17:00:00Z,27.9396,-96.8429,2.0,228.1151003,15.35276522,-99999.0,'11111222,11111222,99999999' 
TABS,ioos:station:wmo:42048:1,2004-08-03T17:30:00Z,27.9396,-96.8429,2.0,226.2782807,16.16141392,-99999.0,'11111222,11111222,99999999' 
TABS,ioos:station:wmo:42048:1,2004-08-03T18:00:00Z,27.9396,-96.8429,2.0,236.7827063,16.794121,-99999.0,'11111222,11111222,99999999' 
TABS,ioos:station:wmo:42048:1,2004-08-03T18:30:00Z,27.9396,-96.8429,2.0,232.7648322,14.13028662,-99999.0,'11111222,11111222,99999999' 
TABS,ioos:station:wmo:42048:1,2004-08-03T19:00:00Z,27.9396,-96.8429,2.0,239.3762379,16.74541728,-99999.0,'11111222,11111222,99999999' 
TABS,ioos:station:wmo:42048:1,2004-08-03T19:30:00Z,27.9396,-96.8429,2.0,247.5462975,19.58469811,-99999.0,'11111222,11111222,99999999' 
TABS,ioos:station:wmo:42048:1,2004-08-03T20:00:00Z,27.9396,-96.8429,2.0,246.2398799,16.35631377,-99999.0,'11111222,11111222,99999999' 
TABS,ioos:station:wmo:42048:1,2004-08-03T20:30:00Z,27.9396,-96.8429,2.0,254.4755044,15.87931044,-99999.0,'11111222,11111222,99999999' 
TABS,ioos:station:wmo:42048:1,2004-08-03T21:00:00Z,27.9396,-96.8429,2.0,251.7920833,15.1379424,-99999.0,'11111222,11111222,99999999' 
TABS,ioos:station:wmo:42048:1,2004-08-03T21:30:00Z,27.9396,-96.8429,2.0,249.8898393,13.52451478,-99999.0,'11111222,11111222,99999999' 
TABS,ioos:station:wmo:42048:1,2004-08-03T22:00:00Z,27.9396,-96.8429,2.0,252.9163266,13.00374177,-99999.0,'11111222,11111222,99999999' 
TABS,ioos:station:wmo:42048:1,2004-08-03T22:30:00Z,27.9396,-96.8429,2.0,269.7374782,10.93011436,-99999.0,'11111222,11111222,99999999' 
TABS,ioos:station:wmo:42048:1,2004-08-03T23:00:00Z,27.9396,-96.8429,2.0,273.2053283,15.20377914,-99999.0,'11111222,11111222,99999999' 
TABS,ioos:station:wmo:42048:1,2004-08-03T23:30:00Z,27.9396,-96.8429,2.0,272.6258953,11.35191614,-99999.0,'11111222,11111222,99999999' 
TABS,ioos:station:wmo:42048:1,2004-08-04T00:00:00Z,27.9396,-96.8429,2.0,267.8290629,10.29738802,-99999.0,'11111222,11111222,99999999' 
TABS,ioos:station:wmo:42048:1,2004-08-04T00:30:00Z,27.9396,-96.8429,2.0,271.3023705,7.481931569,-99999.0,'11133222,11111222,99999999' 
TABS,ioos:station:wmo:42048:1,2004-08-04T01:00:00Z,27.9396,-96.8429,2.0,259.0960183,3.594899164,-99999.0,'11133222,11111222,99999999' 
TABS,ioos:station:wmo:42048:1,2004-08-04T01:30:00Z,27.9396,-96.8429,2.0,257.5470641,5.704191441,-99999.0,'11133222,11111222,99999999' 
TABS,ioos:station:wmo:42048:1,2004-08-04T02:00:00Z,27.9396,-96.8429,2.0,259.4560618,6.011497318,-99999.0,'11133222,11111222,99999999' 
TABS,ioos:station:wmo:42048:1,2004-08-04T02:30:00Z,27.9396,-96.8429,2.0,225.9620067,6.315354305,-99999.0,'11133222,11111222,99999999' 
TABS,ioos:station:wmo:42048:1,2004-08-04T03:00:00Z,27.9396,-96.8429,2.0,237.6189771,3.398426106,-99999.0,'11133222,11111222,99999999' 
TABS,ioos:station:wmo:42048:1,2004-08-04T03:30:00Z,27.9396,-96.8429,2.0,230.5673205,6.486485952,-99999.0,'11133222,11111222,99999999' 
TABS,ioos:station:wmo:42048:1,2004-08-04T04:00:00Z,27.9396,-96.8429,2.0,263.06339,4.140301921,-99999.0,'11133222,11111222,99999999' 
TABS,ioos:station:wmo:42048:1,2004-08-04T04:30:00Z,27.9396,-96.8429,2.0,230.4022733,4.581189802,-99999.0,'11133222,11111222,99999999' 
TABS,ioos:station:wmo:42048:1,2004-08-04T05:00:00Z,27.9396,-96.8429,2.0,259.7774344,6.818225576,-99999.0,'11133222,11111222,99999999' 
TABS,ioos:station:wmo:42048:1,2004-08-04T05:30:00Z,27.9396,-96.8429,2.0,243.2135857,4.637639486,-99999.0,'11133222,11111222,99999999' 
TABS,ioos:station:wmo:42048:1,2004-08-04T06:00:00Z,27.9396,-96.8429,2.0,201.231561,3.175547197,-99999.0,'11133222,11111222,99999999' 
TABS,ioos:station:wmo:42048:1,2004-08-04T06:30:00Z,27.9396,-96.8429,2.0,234.9229048,3.323627536,-99999.0,'11133222,11111222,99999999' 
TABS,ioos:station:wmo:42048:1,2004-08-04T07:00:00Z,27.9396,-96.8429,2.0,245.0618695,3.937067437,-99999.0,'11133222,11111222,99999999' 
TABS,ioos:station:wmo:42048:1,2004-08-04T07:30:00Z,27.9396,-96.8429,2.0,220.9748544,3.324530042,-99999.0,'11133222,11111222,99999999' 
TABS,ioos:station:wmo:42048:1,2004-08-04T08:00:00Z,27.9396,-96.8429,2.0,253.1880021,3.906980932,-99999.0,'11133222,11111222,99999999' 
TABS,ioos:station:wmo:42048:1,2004-08-04T08:30:00Z,27.9396,-96.8429,2.0,275.7772129,2.583118271,-99999.0,'11133222,11111222,99999999' 
TABS,ioos:station:wmo:42048:1,2004-08-04T09:00:00Z,27.9396,-96.8429,2.0,258.8957716,1.090412766,-99999.0,'11133222,11111222,99999999' 
TABS,ioos:station:wmo:42048:1,2004-08-04T09:30:00Z,27.9396,-96.8429,2.0,267.397023,1.982044399,-99999.0,'11133222,11111222,99999999' 
TABS,ioos:station:wmo:42048:1,2004-08-04T10:00:00Z,27.9396,-96.8429,2.0,241.7708689,2.156478611,-99999.0,'11133222,11111222,99999999' 
TABS,ioos:station:wmo:42048:1,2004-08-04T10:30:00Z,27.9396,-96.8429,2.0,229.1442984,1.956731969,-99999.0,'11133222,11111222,99999999' 
TABS,ioos:station:wmo:42048:1,2004-08-04T11:00:00Z,27.9396,-96.8429,2.0,256.6071126,0.215870331,-99999.0,'11133222,11111222,99999999' 
TABS,ioos:station:wmo:42048:1,2004-08-04T11:30:00Z,27.9396,-96.8429,2.0,242.5171225,2.513662666,-99999.0,'11133222,11111222,99999999' 
TABS,ioos:station:wmo:42048:1,2004-08-04T12:00:00Z,27.9396,-96.8429,2.0,179.8360881,3.500014286,-99999.0,'11133222,11111222,99999999' 
TABS,ioos:station:wmo:42048:1,2004-08-04T13:00:00Z,27.9396,-96.8429,2.0,188.9956829,3.8371995,-99999.0,'11133222,11111222,99999999' 
TABS,ioos:station:wmo:42048:1,2004-08-04T13:30:00Z,27.9396,-96.8429,2.0,196.4663824,3.774824499,-99999.0,'11133222,11111222,99999999' 
TABS,ioos:station:wmo:42048:1,2004-08-04T14:00:00Z,27.9396,-96.8429,2.0,204.6030381,5.356286027,-99999.0,'11133222,11111222,99999999' 
TABS,ioos:station:wmo:42048:1,2004-08-04T14:30:00Z,27.9396,-96.8429,2.0,193.0491145,5.491821192,-99999.0,'11133222,11111222,99999999' 
TABS,ioos:station:wmo:42048:1,2004-08-04T15:00:00Z,27.9396,-96.8429,2.0,187.0098428,6.800838184,-99999.0,'11133222,11111222,99999999' 
TABS,ioos:station:wmo:42048:1,2004-08-04T15:30:00Z,27.9396,-96.8429,2.0,183.4811655,7.904587276,-99999.0,'11133222,11111222,99999999' 
TABS,ioos:station:wmo:42048:1,2004-08-04T16:00:00Z,27.9396,-96.8429,2.0,186.96158,7.837786677,-99999.0,'11133222,11111222,99999999' 
TABS,ioos:station:wmo:42048:1,2004-08-04T16:30:00Z,27.9396,-96.8429,2.0,181.293097,7.531918746,-99999.0,'11133222,11111222,99999999' 